IRIDIUM 106 1 41917U 17003A 25354.90669306 .00000026 00000+0 23309-5 0 9990 2 41917 86.3989 163.0440 0002449 96.6047 263.5428 14.34217787467658 IRIDIUM 103 1 41918U 17003B 25354.89401279 .00000063 00000+0 15318-4 0 9993 2 41918 86.3989 162.9496 0001780 101.8307 258.3089 14.34217009467677 IRIDIUM 109 1 41919U 17003C 25355.17942550 .00000205 00000+0 66090-4 0 9999 2 41919 86.3990 162.8869 0001970 96.4988 263.6433 14.34218866467683 IRIDIUM 102 1 41920U 17003D 25355.00817334 .00000041 00000+0 74269-5 0 9990 2 41920 86.3988 162.8860 0002011 89.4798 270.6628 14.34217424467741 IRIDIUM 105 1 41921U 17003E 25354.90914632 .00000241 00000+0 79164-4 0 9998 2 41921 86.3985 131.4193 0001945 96.3947 263.7470 14.34216591469584 IRIDIUM 104 1 41922U 17003F 25355.02085772 -.00000077 00000+0 -34590-4 0 9990 2 41922 86.3993 162.9207 0001545 91.8060 268.3313 14.34216929467738 IRIDIUM 114 1 41923U 17003G 25354.88765690 .00000062 00000+0 15005-4 0 9990 2 41923 86.3990 162.9601 0001836 94.2475 265.8930 14.34217217467697 IRIDIUM 108 1 41924U 17003H 25354.84618552 .00000219 00000+0 71098-4 0 9999 2 41924 86.3980 131.3351 0002090 90.1876 269.9559 14.34219126469541 IRIDIUM 112 1 41925U 17003J 25355.01451385 .00000050 00000+0 10780-4 0 9993 2 41925 86.3986 162.7575 0001855 90.3556 269.7853 14.34218073467733 IRIDIUM 111 1 41926U 17003K 25354.58321949 .00000051 00000+0 11016-4 0 9991 2 41926 86.3987 163.0041 0002019 94.3812 265.7615 14.34218098467659 IRIDIUM 113 1 42803U 17039A 25355.12133303 .00000005 00000+0 -51595-5 0 9998 2 42803 86.3965 36.5914 0002020 94.9523 265.1903 14.34217676445662 IRIDIUM 123 1 42804U 17039B 25355.23258032 .00000214 00000+0 69431-4 0 9996 2 42804 86.3961 68.0290 0002227 103.9301 256.2143 14.34219004444449 IRIDIUM 120 1 42805U 17039C 25355.18475850 .00000123 00000+0 36719-4 0 9992 2 42805 86.3955 36.3706 0002522 93.8513 266.2971 14.34218771445668 IRIDIUM 115 1 42806U 17039D 25355.00765743 .00000269 00000+0 73847-4 0 9991 2 42806 86.4490 36.5488 0002664 102.6280 257.5219 14.43279398448562 IRIDIUM 118 1 42807U 17039E 25355.19452609 .00000237 00000+0 77423-4 0 9995 2 42807 86.3960 68.0438 0002029 97.4112 262.7314 14.34217769444439 IRIDIUM 117 1 42808U 17039F 25355.21355246 .00000247 00000+0 81266-4 0 9999 2 42808 86.3959 67.9951 0002126 101.9901 258.1533 14.34217511444461 IRIDIUM 126 1 42809U 17039G 25355.23892205 .00000133 00000+0 40327-4 0 9990 2 42809 86.3963 68.0330 0001990 101.6724 258.4695 14.34218638444449 IRIDIUM 124 1 42810U 17039H 25355.08012767 .00000306 00000+0 84865-4 0 9999 2 42810 86.4490 4.8198 0002343 95.0725 265.0743 14.43279745449424 IRIDIUM 128 1 42811U 17039J 25354.81105045 .00000189 00000+0 60426-4 0 9998 2 42811 86.3972 99.7466 0002407 96.2444 263.9026 14.34218190444414 IRIDIUM 121 1 42812U 17039K 25355.25795115 .00000176 00000+0 55866-4 0 9999 2 42812 86.3964 68.0514 0002214 94.4948 265.6501 14.34217850444323 IRIDIUM 133 1 42955U 17061A 25355.26137576 .00000315 00000+0 10542-3 0 9990 2 42955 86.3969 99.6714 0002067 98.3081 261.8349 14.34220365429275 IRIDIUM 100 1 42956U 17061B 25355.25503082 .00000187 00000+0 59615-4 0 9991 2 42956 86.3967 99.5971 0002089 98.3230 261.8202 14.34218281429270 IRIDIUM 122 1 42957U 17061C 25355.22332070 .00000268 00000+0 88473-4 0 9990 2 42957 86.3968 99.6102 0002032 99.4630 260.6796 14.34218073429277 IRIDIUM 129 1 42958U 17061D 25355.03938397 .00000095 00000+0 26921-4 0 9992 2 42958 86.3978 99.7519 0001669 93.3811 266.7575 14.34216280429260 IRIDIUM 119 1 42959U 17061E 25355.00767022 .00000215 00000+0 69777-4 0 9995 2 42959 86.3969 99.7603 0001861 99.3357 260.8049 14.34218836429271 IRIDIUM 107 1 42960U 17061F 25354.81739258 .00000186 00000+0 59469-4 0 9999 2 42960 86.3971 99.8602 0002175 107.3609 252.7825 14.34217878429250 IRIDIUM 132 1 42961U 17061G 25355.24234680 .00000223 00000+0 72644-4 0 9999 2 42961 86.3971 99.6633 0002113 100.0557 260.0877 14.34218101429313 IRIDIUM 136 1 42962U 17061H 25355.13452209 .00000105 00000+0 30379-4 0 9995 2 42962 86.3968 99.7141 0001939 100.1873 259.9542 14.34218108429315 IRIDIUM 139 1 42963U 17061J 25355.28040219 .00000173 00000+0 54772-4 0 9994 2 42963 86.3973 99.7122 0002160 100.3530 259.7909 14.34218591429344 IRIDIUM 125 1 42964U 17061K 25355.26770848 .00000259 00000+0 85559-4 0 9993 2 42964 86.3973 99.7753 0001909 112.5861 247.5537 14.34215398429352 IRIDIUM 135 1 43070U 17083A 25355.17207425 .00000214 00000+0 69364-4 0 9999 2 43070 86.3959 36.4184 0002172 92.8602 267.2843 14.34217208418637 IRIDIUM 138 1 43071U 17083B 25355.26721141 -.00000038 00000+0 -20680-4 0 9990 2 43071 86.3971 36.0462 0001673 97.6539 262.4847 14.34217687418636 IRIDIUM 116 1 43072U 17083C 25355.02619583 .00000214 00000+0 69430-4 0 9991 2 43072 86.3957 36.4674 0002532 93.1399 267.0086 14.34218534418638 IRIDIUM 130 1 43073U 17083D 25355.27355527 .00000152 00000+0 47045-4 0 9993 2 43073 86.3966 36.6221 0002502 97.6271 262.5209 14.34218870418612 IRIDIUM 151 1 43074U 17083E 25355.10864784 .00000048 00000+0 10044-4 0 9999 2 43074 86.3962 36.4871 0002259 92.9903 267.1552 14.34218070418611 IRIDIUM 134 1 43075U 17083F 25355.07694199 .00000221 00000+0 71855-4 0 9997 2 43075 86.3961 36.5058 0002332 98.2990 261.8470 14.34216666418570 IRIDIUM 137 1 43076U 17083G 25355.15938865 .00000224 00000+0 73090-4 0 9994 2 43076 86.3964 36.5605 0002602 84.9431 275.2062 14.34219243418653 IRIDIUM 141 1 43077U 17083H 25355.22281394 .00000094 00000+0 26611-4 0 9993 2 43077 86.3958 36.3743 0002065 97.2720 262.8711 14.34218380418664 IRIDIUM 153 1 43078U 17083J 25355.10522389 -.00000008 00000+0 -10076-4 0 9998 2 43078 86.3965 4.9142 0001816 98.5600 261.5802 14.34217639419755 IRIDIUM 131 1 43079U 17083K 25355.21012890 -.00000163 00000+0 -65252-4 0 9990 2 43079 86.3964 36.5539 0001989 92.2031 267.9393 14.34217326418595 IRIDIUM 144 1 43249U 18030A 25355.11156686 .00000185 00000+0 58943-4 0 9994 2 43249 86.3965 4.8449 0002362 92.4941 267.6525 14.34219064404614 IRIDIUM 149 1 43250U 18030B 25355.11790974 .00000022 00000+0 88477-6 0 9997 2 43250 86.3963 4.8114 0002255 92.1359 268.0095 14.34217892404630 IRIDIUM 157 1 43251U 18030C 25354.78809630 .00000204 00000+0 65914-4 0 9991 2 43251 86.3965 4.9984 0002162 87.6261 272.5183 14.34218501404565 IRIDIUM 140 1 43252U 18030D 25355.08619752 .00000111 00000+0 32630-4 0 9996 2 43252 86.3969 4.8870 0002253 92.8274 267.3179 14.34217400404661 IRIDIUM 145 1 43253U 18030E 25355.28281822 .00000229 00000+0 74538-4 0 9995 2 43253 86.3965 4.7771 0002586 91.6582 268.4910 14.34217788404625 IRIDIUM 146 1 43254U 18030F 25355.05449359 .00000212 00000+0 68510-4 0 9997 2 43254 86.3964 4.8854 0002415 91.2870 268.8603 14.34215360404600 IRIDIUM 148 1 43255U 18030G 25355.02277119 .00000161 00000+0 50542-4 0 9997 2 43255 86.3965 4.9390 0002217 88.3396 271.8054 14.34218520404636 IRIDIUM 142 1 43256U 18030H 25355.27013297 .00000082 00000+0 22318-4 0 9992 2 43256 86.3960 4.7312 0002622 91.8786 268.2711 14.34218253404639 IRIDIUM 150 1 43257U 18030J 25355.02911509 .00000204 00000+0 65945-4 0 9998 2 43257 86.3966 4.9425 0002371 92.6030 267.5438 14.34217154404621 IRIDIUM 143 1 43258U 18030K 25355.07984507 .00000221 00000+0 71963-4 0 9998 2 43258 86.3950 5.0074 0002517 95.3990 264.7493 14.34220419404565 IRIDIUM 161 1 43478U 18047C 25354.91940457 .00000079 00000+0 17412-4 0 9998 2 43478 86.4508 162.9644 0001855 89.3980 270.7433 14.43280892399421 IRIDIUM 152 1 43479U 18047D 25355.19210841 .00000063 00000+0 15575-4 0 9998 2 43479 86.3984 162.7111 0001848 93.6084 266.5323 14.34217979396975 IRIDIUM 147 1 43480U 18047E 25354.91936259 .00000175 00000+0 55345-4 0 9990 2 43480 86.3994 162.8275 0002060 92.7569 267.3863 14.34218257396939 IRIDIUM 110 1 43481U 18047F 25355.20479064 .00000058 00000+0 13480-4 0 9994 2 43481 86.3989 162.7951 0001505 86.2765 273.8603 14.34217547396961 IRIDIUM 162 1 43482U 18047G 25355.19043227 .00000077 00000+0 16940-4 0 9996 2 43482 86.4509 162.7447 0001948 100.9629 259.1792 14.43279212399455 IRIDIUM 160 1 43569U 18061A 25355.22039927 .00000253 00000+0 83184-4 0 9994 2 43569 86.3980 131.2094 0001868 89.6535 270.4875 14.34218881387867 IRIDIUM 166 1 43570U 18061B 25355.10623226 .00000137 00000+0 41816-4 0 9991 2 43570 86.3980 131.2100 0002140 91.9936 268.1505 14.34218423387879 IRIDIUM 158 1 43571U 18061C 25355.21405782 .00000250 00000+0 82189-4 0 9993 2 43571 86.3982 131.1750 0001938 100.9895 259.1519 14.34217807387859 IRIDIUM 165 1 43572U 18061D 25355.23942687 .00000247 00000+0 80971-4 0 9999 2 43572 86.3981 131.2072 0002076 91.7139 268.4295 14.34218891387880 IRIDIUM 155 1 43573U 18061E 25355.13160275 .00000123 00000+0 36809-4 0 9998 2 43573 86.3979 131.1301 0002163 99.4120 260.7321 14.34218449387833 IRIDIUM 154 1 43574U 18061F 25355.11257499 .00000164 00000+0 51655-4 0 9993 2 43574 86.3982 131.2629 0002048 93.2967 266.8463 14.34218542387888 IRIDIUM 163 1 43575U 18061G 25355.23308390 .00000223 00000+0 72639-4 0 9995 2 43575 86.3982 131.1337 0001883 97.0884 263.0526 14.34218601387874 IRIDIUM 156 1 43576U 18061H 25355.13794675 .00000219 00000+0 71172-4 0 9996 2 43576 86.3980 131.1803 0002204 99.1949 260.9497 14.34217836387854 IRIDIUM 164 1 43577U 18061J 25354.90962381 .00000173 00000+0 54760-4 0 9995 2 43577 86.3984 131.3133 0002073 88.7242 271.4191 14.34218230387869 IRIDIUM 159 1 43578U 18061K 25354.87789918 .00000217 00000+0 70502-4 0 9996 2 43578 86.3979 131.2670 0001977 90.6739 269.4683 14.34218637387824 IRIDIUM 180 1 43922U 19002A 25354.73785738 .00000170 00000+0 53651-4 0 9990 2 43922 86.3961 68.1976 0001980 95.5322 264.6100 14.34218839363415 IRIDIUM 176 1 43923U 19002B 25355.28750392 .00000809 00000+0 12444-3 0 9993 2 43923 86.6081 67.9371 0002358 95.8874 264.2612 14.72260447373074 IRIDIUM 168 1 43924U 19002C 25355.15012553 .00000232 00000+0 75848-4 0 9998 2 43924 86.3963 68.0976 0002124 98.4170 261.7267 14.34216882363454 IRIDIUM 173 1 43925U 19002D 25355.06766859 .00000236 00000+0 77375-4 0 9995 2 43925 86.3961 68.0281 0002082 102.0227 258.1202 14.34217373363422 IRIDIUM 169 1 43926U 19002E 25355.25902943 .00000331 00000+0 10162-3 0 9999 2 43926 86.4225 99.6006 0002490 122.7165 237.4274 14.38611218364649 IRIDIUM 172 1 43927U 19002F 25355.27063412 .00000261 00000+0 86146-4 0 9999 2 43927 86.3959 67.9505 0001984 94.4792 265.6631 14.34217056363460 IRIDIUM 175 1 43928U 19002G 25355.07888889 .00000667 00000+0 10176-3 0 9990 2 43928 86.1496 9.9579 0003193 84.1791 275.9789 14.72249244373039 IRIDIUM 171 1 43929U 19002H 25355.18184817 .00000222 00000+0 72115-4 0 9992 2 43929 86.3970 68.2747 0002417 97.6629 262.4842 14.34216841363441 IRIDIUM 170 1 43930U 19002J 25355.29369889 .00000807 00000+0 12405-3 0 9994 2 43930 86.6081 67.9382 0002313 91.4166 268.7317 14.72255272373083 IRIDIUM 167 1 43931U 19002K 25355.24526675 .00000141 00000+0 43212-4 0 9990 2 43931 86.3959 67.9821 0002555 101.7559 258.3923 14.34218077363450 IRIDIUM 181 1 56726U 23068S 25355.13790974 .00000298 00000+0 82670-4 0 9990 2 56726 86.4518 131.2187 0002299 83.1898 276.9565 14.43312567136750 IRIDIUM 177 1 56727U 23068T 25355.12477726 .00000884 00000+0 11291-3 0 9998 2 56727 86.1959 53.3476 0002216 86.3670 273.7805 14.80226389140028 IRIDIUM 174 1 56728U 23068U 25355.21337128 .00000734 00000+0 11255-3 0 9994 2 56728 86.6090 68.1015 0002055 89.7953 270.3499 14.72248418139832 IRIDIUM 178 1 56729U 23068V 25355.24903743 .00001264 00000+0 16293-3 0 9996 2 56729 86.6543 99.7442 0002493 92.0401 268.1106 14.80222891140042 IRIDIUM 179 1 56730U 23068W 25355.24367810 .00001195 00000+0 15383-3 0 9999 2 56730 86.6783 108.1955 0002418 91.3779 268.7720 14.80232536140046